| time (UTC) | temp F | wind direction | speed MPH | gust MPH | rain 1hr in | rain 24hr in | rain mn in | humidity % | barometer mb |
| 20260506090941 | 61 | 43 | 4.0 | 7.0 | 0.00 | 0.00 | 0.00 | 83 | 1088.7 |
| 20260506090439 | 61 | 38 | 3.0 | 4.0 | 0.00 | 0.00 | 0.00 | 83 | 1088.4 |
| 20260506085935 | 61 | 38 | 2.0 | 3.0 | 0.00 | 0.00 | 0.00 | 83 | 1088.4 |
| 20260506085432 | 62 | 358 | 2.0 | 3.0 | 0.00 | 0.00 | 0.00 | 82 | 1088.7 |
| 20260506084928 | 62 | 36 | 3.0 | 4.0 | 0.00 | 0.00 | 0.00 | 82 | 1088.6 |
| 20260506084426 | 62 | 41 | 2.0 | 2.0 | 0.00 | 0.00 | 0.00 | 82 | 1088.3 |
| 20260506083921 | 62 | 40 | 6.0 | 8.0 | 0.00 | 0.00 | 0.00 | 82 | 1088.4 |
| 20260506083419 | 62 | 29 | 4.0 | 6.0 | 0.00 | 0.00 | 0.00 | 82 | 1088.5 |
| 20260506082916 | 62 | 16 | 3.0 | 3.0 | 0.00 | 0.00 | 0.00 | 82 | 1088.5 |
| 20260506082413 | 63 | 358 | 2.0 | 3.0 | 0.00 | 0.00 | 0.00 | 82 | 1088.6 |
| 20260506081908 | 63 | 35 | 2.0 | 4.0 | 0.00 | 0.00 | 0.00 | 82 | 1088.5 |
| 20260506081408 | 63 | 23 | 3.0 | 4.0 | 0.00 | 0.00 | 0.00 | 82 | 1088.5 |
| 20260506080904 | 63 | 37 | 3.0 | 4.0 | 0.00 | 0.00 | 0.00 | 82 | 1088.6 |
| 20260506080401 | 64 | 37 | 2.0 | 3.0 | 0.00 | 0.00 | 0.00 | 81 | 1088.6 |
| 20260506073345 | 64 | 41 | 0.0 | 1.0 | 0.00 | 0.00 | 0.00 | 78 | 1088.6 |
| 20260506072841 | 64 | 68 | 0.0 | 1.0 | 0.00 | 0.00 | 0.00 | 77 | 1088.9 |
| 20260506072339 | 64 | 83 | 2.0 | 2.0 | 0.00 | 0.00 | 0.00 | 77 | 1088.5 |
| 20260506071837 | 65 | 49 | 2.0 | 3.0 | 0.00 | 0.00 | 0.00 | 76 | 1088.7 |
| 20260506071335 | 65 | 73 | 0.0 | 0.0 | 0.00 | 0.00 | 0.00 | 76 | 1088.6 |
| 20260506070831 | 64 | 69 | 1.0 | 2.0 | 0.00 | 0.00 | 0.00 | 76 | 1089.0 |
| 20260506070328 | 65 | 95 | 0.0 | 1.0 | 0.00 | 0.00 | 0.00 | 75 | 1089.0 |
| 20260506062306 | 67 | 49 | 3.0 | 3.0 | 0.00 | 0.00 | 0.00 | 69 | 1088.5 |
| 20260506061801 | 67 | 63 | 2.0 | 3.0 | 0.00 | 0.00 | 0.00 | 68 | 1088.0 |
| 20260506061258 | 67 | 44 | 2.0 | 3.0 | 0.00 | 0.00 | 0.00 | 66 | 1087.9 |
| 20260506060757 | 67 | 13 | 2.0 | 2.0 | 0.00 | 0.00 | 0.00 | 64 | 1088.1 |
| 20260506060254 | 68 | 13 | 2.0 | 2.0 | 0.00 | 0.00 | 0.00 | 60 | 1088.1 |
| 20260506051226 | 67 | 25 | 0.0 | 0.0 | 0.00 | 0.00 | 0.00 | 60 | 1087.8 |
| 20260506050724 | 68 | 25 | 0.0 | 1.0 | 0.00 | 0.00 | 0.00 | 55 | 1088.0 |
| 20260506050221 | 68 | 25 | 0.0 | 0.0 | 0.00 | 0.00 | 0.00 | 51 | 1088.1 |
| 20260506044712 | 67 | 25 | 0.0 | 0.0 | 0.00 | 0.00 | 0.00 | 59 | 1087.9 |
| 20260506044209 | 68 | 25 | 0.0 | 0.0 | 0.00 | 0.00 | 0.00 | 57 | 1087.9 |
| 20260506043706 | 68 | 25 | 0.0 | 0.0 | 0.00 | 0.00 | 0.00 | 55 | 1087.9 |
| 20260506043204 | 69 | 25 | 0.0 | 0.0 | 0.00 | 0.00 | 0.00 | 53 | 1088.1 |
| 20260506042703 | 69 | 25 | 1.0 | 1.0 | 0.00 | 0.00 | 0.00 | 52 | 1087.9 |
| 20260506042200 | 69 | 25 | 0.0 | 0.0 | 0.00 | 0.00 | 0.00 | 49 | 1087.8 |
| 20260506041659 | 70 | 25 | 0.0 | 0.0 | 0.00 | 0.00 | 0.00 | 51 | 1087.8 |
| 20260506041155 | 71 | 25 | 0.0 | 0.0 | 0.00 | 0.00 | 0.00 | 42 | 1087.7 |
| 20260506040653 | 71 | 25 | 0.0 | 0.0 | 0.00 | 0.00 | 0.00 | 42 | 1087.7 |
| 20260506040149 | 72 | 25 | 0.0 | 0.0 | 0.00 | 0.00 | 0.00 | 42 | 1087.8 |
| 20260506035646 | 72 | 25 | 0.0 | 0.0 | 0.00 | 0.00 | 0.00 | 41 | 1087.7 |
| 20260506035143 | 72 | 25 | 0.0 | 0.0 | 0.00 | 0.00 | 0.00 | 42 | 1087.8 |
| 20260506034640 | 72 | 25 | 0.0 | 0.0 | 0.00 | 0.00 | 0.00 | 41 | 1087.9 |
| 20260506034137 | 72 | 25 | 0.0 | 0.0 | 0.00 | 0.00 | 0.00 | 46 | 1087.9 |
| 20260506033634 | 71 | 25 | 0.0 | 0.0 | 0.00 | 0.00 | 0.00 | 45 | 1087.8 |
| 20260506033131 | 72 | 25 | 0.0 | 1.0 | 0.00 | 0.00 | 0.00 | 47 | 1087.8 |
| 20260506032628 | 73 | 25 | 0.0 | 0.0 | 0.00 | 0.00 | 0.00 | 48 | 1088.0 |
| 20260506032125 | 73 | 25 | 0.0 | 1.0 | 0.00 | 0.00 | 0.00 | 43 | 1087.9 |
| 20260506031622 | 72 | 25 | 0.0 | 1.0 | 0.00 | 0.00 | 0.00 | 44 | 1087.7 |
| 20260506031119 | 73 | 25 | 1.0 | 1.0 | 0.00 | 0.00 | 0.00 | 46 | 1087.5 |
| 20260506030618 | 74 | 25 | 0.0 | 0.0 | 0.00 | 0.00 | 0.00 | 41 | 1087.3 |
| 20260506030115 | 74 | 25 | 0.0 | 0.0 | 0.00 | 0.00 | 0.00 | 40 | 1087.5 |
| 20260506025612 | 75 | 25 | 0.0 | 0.0 | 0.00 | 0.00 | 0.00 | 42 | 1087.3 |
| 20260506025107 | 75 | 25 | 0.0 | 0.0 | 0.00 | 0.00 | 0.00 | 38 | 1087.4 |
| 20260506024605 | 76 | 25 | 0.0 | 0.0 | 0.00 | 0.00 | 0.00 | 38 | 1087.3 |
| 20260506024101 | 77 | 25 | 0.0 | 0.0 | 0.00 | 0.00 | 0.00 | 38 | 1087.1 |
| 20260506023557 | 77 | 25 | 0.0 | 0.0 | 0.00 | 0.00 | 0.00 | 39 | 1087.3 |
| 20260506023055 | 78 | 25 | 0.0 | 0.0 | 0.00 | 0.00 | 0.00 | 39 | 1086.8 |
| 20260506022552 | 78 | 25 | 1.0 | 2.0 | 0.00 | 0.00 | 0.00 | 36 | 1087.0 |
| 20260506022049 | 78 | 19 | 0.0 | 1.0 | 0.00 | 0.00 | 0.00 | 39 | 1087.1 |
| 20260506021547 | 77 | 5 | 1.0 | 1.0 | 0.00 | 0.00 | 0.00 | 39 | 1086.8 |
| 20260506021044 | 76 | 335 | 0.0 | 0.0 | 0.00 | 0.00 | 0.00 | 43 | 1087.1 |
| 20260506020541 | 77 | 335 | 0.0 | 0.0 | 0.00 | 0.00 | 0.00 | 40 | 1087.0 |
| 20260506020038 | 77 | 335 | 0.0 | 0.0 | 0.00 | 0.00 | 0.00 | 39 | 1086.9 |
| 20260506015536 | 78 | 335 | 1.0 | 1.0 | 0.00 | 0.00 | 0.00 | 37 | 1086.9 |
| 20260506015033 | 79 | 324 | 0.0 | 0.0 | 0.00 | 0.00 | 0.00 | 37 | 1086.7 |
| 20260506014530 | 80 | 318 | 0.0 | 0.0 | 0.00 | 0.00 | 0.00 | 34 | 1086.5 |
| 20260506014026 | 81 | 317 | 1.0 | 1.0 | 0.00 | 0.00 | 0.00 | 33 | 1086.5 |
| 20260506013524 | 82 | 294 | 1.0 | 2.0 | 0.00 | 0.00 | 0.00 | 34 | 1086.6 |
| 20260506013021 | 82 | 298 | 1.0 | 3.0 | 0.00 | 0.00 | 0.00 | 33 | 1086.5 |
| 20260506012517 | 81 | 305 | 1.0 | 1.0 | 0.00 | 0.00 | 0.00 | 35 | 1086.1 |
| 20260506012014 | 82 | 304 | 1.0 | 1.0 | 0.00 | 0.00 | 0.00 | 35 | 1086.3 |
| 20260506011511 | 83 | 281 | 2.0 | 2.0 | 0.00 | 0.00 | 0.00 | 35 | 1086.2 |
| 20260506011008 | 83 | 276 | 3.0 | 4.0 | 0.00 | 0.00 | 0.00 | 33 | 1086.0 |
| 20260506010507 | 82 | 296 | 1.0 | 2.0 | 0.00 | 0.00 | 0.00 | 37 | 1086.3 |
| 20260506010003 | 83 | 303 | 0.0 | 0.0 | 0.00 | 0.00 | 0.00 | 37 | 1085.9 |
| 20260506005501 | 84 | 303 | 0.0 | 0.0 | 0.00 | 0.00 | 0.00 | 38 | 1086.0 |
| 20260506004956 | 84 | 303 | 0.0 | 0.0 | 0.00 | 0.00 | 0.00 | 36 | 1085.6 |
| 20260506004454 | 85 | 304 | 1.0 | 1.0 | 0.00 | 0.00 | 0.00 | 35 | 1085.8 |
| 20260506003950 | 85 | 304 | 1.0 | 1.0 | 0.00 | 0.00 | 0.00 | 34 | 1085.8 |
| 20260506003446 | 85 | 305 | 1.0 | 1.0 | 0.00 | 0.00 | 0.00 | 34 | 1085.7 |
| 20260506002943 | 86 | 296 | 0.0 | 1.0 | 0.00 | 0.00 | 0.00 | 34 | 1085.6 |
| 20260506002439 | 86 | 294 | 0.0 | 0.0 | 0.00 | 0.00 | 0.00 | 33 | 1086.0 |
| 20260506001934 | 87 | 294 | 1.0 | 1.0 | 0.00 | 0.00 | 0.00 | 31 | 1085.3 |
| 20260506001432 | 87 | 285 | 0.0 | 1.0 | 0.00 | 0.00 | 0.00 | 33 | 1085.7 |
| 20260506000929 | 86 | 285 | 1.0 | 1.0 | 0.00 | 0.00 | 0.00 | 32 | 1085.6 |
| 20260506000426 | 86 | 290 | 1.0 | 2.0 | 0.00 | 0.00 | 0.00 | 31 | 1085.7 |
| 20260505235923 | 86 | 297 | 1.0 | 1.0 | 0.00 | 0.00 | 0.00 | 32 | 1085.4 |
| 20260505235421 | 86 | 273 | 2.0 | 3.0 | 0.00 | 0.00 | 0.00 | 31 | 1085.4 |
| 20260505234918 | 87 | 282 | 2.0 | 2.0 | 0.00 | 0.00 | 0.00 | 29 | 1085.3 |
| 20260505234415 | 87 | 266 | 1.0 | 1.0 | 0.00 | 0.00 | 0.00 | 30 | 1085.4 |
| 20260505233912 | 87 | 269 | 4.0 | 4.0 | 0.00 | 0.00 | 0.00 | 29 | 1085.4 |
| 20260505233410 | 88 | 282 | 2.0 | 2.0 | 0.00 | 0.00 | 0.00 | 28 | 1085.2 |
| 20260505232907 | 88 | 272 | 4.0 | 6.0 | 0.00 | 0.00 | 0.00 | 27 | 1085.8 |
| 20260505232405 | 88 | 276 | 5.0 | 7.0 | 0.00 | 0.00 | 0.00 | 27 | 1085.8 |
| 20260505231901 | 88 | 267 | 3.0 | 3.0 | 0.00 | 0.00 | 0.00 | 29 | 1085.4 |
| 20260505231359 | 90 | 300 | 1.0 | 2.0 | 0.00 | 0.00 | 0.00 | 27 | 1085.4 |
| 20260505230857 | 89 | 338 | 5.0 | 6.0 | 0.00 | 0.00 | 0.00 | 27 | 1085.6 |
| 20260505230354 | 90 | 294 | 3.0 | 4.0 | 0.00 | 0.00 | 0.00 | 27 | 1085.4 |
| 20260505225850 | 91 | 306 | 1.0 | 1.0 | 0.00 | 0.00 | 0.00 | 28 | 1085.2 |
| 20260505225348 | 89 | 292 | 1.0 | 2.0 | 0.00 | 0.00 | 0.00 | 28 | 1085.6 |
| 20260505224843 | 89 | 299 | 6.0 | 7.0 | 0.00 | 0.00 | 0.00 | 25 | 1085.7 |
| 20260505224341 | 89 | 291 | 6.0 | 8.0 | 0.00 | 0.00 | 0.00 | 26 | 1085.7 |
| 20260505223838 | 91 | 296 | 5.0 | 7.0 | 0.00 | 0.00 | 0.00 | 26 | 1085.7 |
| 20260505223334 | 90 | 293 | 4.0 | 4.0 | 0.00 | 0.00 | 0.00 | 26 | 1085.7 |
| 20260505222830 | 90 | 280 | 3.0 | 3.0 | 0.00 | 0.00 | 0.00 | 27 | 1085.4 |
| 20260505222326 | 91 | 296 | 4.0 | 7.0 | 0.00 | 0.00 | 0.00 | 26 | 1085.7 |
| 20260505221824 | 91 | 279 | 5.0 | 6.0 | 0.00 | 0.00 | 0.00 | 25 | 1085.6 |
| 20260505221320 | 91 | 285 | 4.0 | 4.0 | 0.00 | 0.00 | 0.00 | 26 | 1085.4 |
| 20260505220818 | 91 | 288 | 2.0 | 2.0 | 0.00 | 0.00 | 0.00 | 26 | 1085.6 |
| 20260505220314 | 92 | 284 | 5.0 | 6.0 | 0.00 | 0.00 | 0.00 | 25 | 1085.4 |
| 20260505215813 | 92 | 261 | 4.0 | 4.0 | 0.00 | 0.00 | 0.00 | 25 | 1085.7 |
| 20260505215310 | 91 | 272 | 3.0 | 4.0 | 0.00 | 0.00 | 0.00 | 26 | 1085.7 |
| 20260505214808 | 92 | 271 | 4.0 | 6.0 | 0.00 | 0.00 | 0.00 | 26 | 1085.4 |
| 20260505214305 | 91 | 276 | 3.0 | 6.0 | 0.00 | 0.00 | 0.00 | 25 | 1085.6 |
| 20260505213802 | 92 | 251 | 8.0 | 9.0 | 0.00 | 0.00 | 0.00 | 25 | 1085.7 |
| 20260505213300 | 92 | 300 | 3.0 | 3.0 | 0.00 | 0.00 | 0.00 | 27 | 1085.8 |
| 20260505212755 | 91 | 350 | 3.0 | 3.0 | 0.00 | 0.00 | 0.00 | 28 | 1085.6 |
| 20260505212253 | 91 | 290 | 3.0 | 4.0 | 0.00 | 0.00 | 0.00 | 26 | 1085.8 |
| 20260505211749 | 92 | 324 | 4.0 | 7.0 | 0.00 | 0.00 | 0.00 | 28 | 1085.9 |
| 20260505211247 | 91 | 358 | 2.0 | 3.0 | 0.00 | 0.00 | 0.00 | 26 | 1085.8 |
| 20260505210743 | 92 | 311 | 10.0 | 14.0 | 0.00 | 0.00 | 0.00 | 26 | 1086.0 |
| 20260505210240 | 92 | 296 | 6.0 | 8.0 | 0.00 | 0.00 | 0.00 | 26 | 1086.0 |
| 20260505205737 | 91 | 261 | 2.0 | 3.0 | 0.00 | 0.00 | 0.00 | 28 | 1086.1 |
| 20260505205236 | 92 | 268 | 3.0 | 3.0 | 0.00 | 0.00 | 0.00 | 30 | 1086.1 |
| 20260505204732 | 91 | 306 | 6.0 | 9.0 | 0.00 | 0.00 | 0.00 | 28 | 1086.2 |
| 20260505204230 | 91 | 277 | 5.0 | 7.0 | 0.00 | 0.00 | 0.00 | 30 | 1085.9 |
| 20260505203726 | 91 | 282 | 9.0 | 10.0 | 0.00 | 0.00 | 0.00 | 28 | 1086.1 |
| 20260505203224 | 91 | 278 | 8.0 | 13.0 | 0.00 | 0.00 | 0.00 | 28 | 1086.1 |
| 20260505202719 | 91 | 248 | 6.0 | 7.0 | 0.00 | 0.00 | 0.00 | 28 | 1086.4 |
| 20260505202215 | 90 | 267 | 3.0 | 4.0 | 0.00 | 0.00 | 0.00 | 28 | 1086.3 |
| 20260505201712 | 89 | 253 | 6.0 | 7.0 | 0.00 | 0.00 | 0.00 | 28 | 1086.4 |
| 20260505201210 | 91 | 274 | 5.0 | 6.0 | 0.00 | 0.00 | 0.00 | 29 | 1086.3 |
| 20260505200708 | 90 | 279 | 3.0 | 3.0 | 0.00 | 0.00 | 0.00 | 30 | 1086.5 |
| 20260505200204 | 91 | 257 | 4.0 | 4.0 | 0.00 | 0.00 | 0.00 | 29 | 1086.5 |
| 20260505195700 | 91 | 274 | 7.0 | 9.0 | 0.00 | 0.00 | 0.00 | 29 | 1086.3 |
| 20260505195158 | 89 | 278 | 4.0 | 6.0 | 0.00 | 0.00 | 0.00 | 30 | 1086.4 |
| 20260505194655 | 90 | 301 | 4.0 | 4.0 | 0.00 | 0.00 | 0.00 | 31 | 1086.7 |
| 20260505194151 | 90 | 290 | 4.0 | 7.0 | 0.00 | 0.00 | 0.00 | 30 | 1086.7 |
| 20260505193648 | 90 | 253 | 3.0 | 4.0 | 0.00 | 0.00 | 0.00 | 30 | 1086.5 |
| 20260505193144 | 91 | 292 | 4.0 | 6.0 | 0.00 | 0.00 | 0.00 | 32 | 1086.6 |
| 20260505192643 | 89 | 273 | 4.0 | 6.0 | 0.00 | 0.00 | 0.00 | 32 | 1086.7 |
| 20260505192141 | 89 | 294 | 4.0 | 4.0 | 0.00 | 0.00 | 0.00 | 33 | 1086.6 |
| 20260505191639 | 89 | 248 | 6.0 | 8.0 | 0.00 | 0.00 | 0.00 | 33 | 1086.8 |
| 20260505191137 | 89 | 324 | 3.0 | 4.0 | 0.00 | 0.00 | 0.00 | 35 | 1086.8 |
| 20260505190632 | 89 | 276 | 10.0 | 13.0 | 0.00 | 0.00 | 0.00 | 35 | 1086.7 |
| 20260505190127 | 89 | 285 | 5.0 | 7.0 | 0.00 | 0.00 | 0.00 | 37 | 1087.0 |
| 20260505185624 | 88 | 310 | 4.0 | 6.0 | 0.00 | 0.00 | 0.00 | 39 | 1087.0 |
| 20260505185120 | 88 | 270 | 7.0 | 9.0 | 0.00 | 0.00 | 0.00 | 37 | 1086.8 |
| 20260505184617 | 88 | 296 | 6.0 | 8.0 | 0.00 | 0.00 | 0.00 | 39 | 1087.0 |
| 20260505184114 | 88 | 258 | 4.0 | 4.0 | 0.00 | 0.00 | 0.00 | 40 | 1087.4 |
| 20260505183611 | 87 | 319 | 5.0 | 6.0 | 0.00 | 0.00 | 0.00 | 39 | 1087.3 |
| 20260505183109 | 87 | 335 | 4.0 | 7.0 | 0.00 | 0.00 | 0.00 | 42 | 1087.4 |
| 20260505182604 | 87 | 313 | 6.0 | 7.0 | 0.00 | 0.00 | 0.00 | 40 | 1087.4 |
| 20260505182101 | 87 | 284 | 2.0 | 3.0 | 0.00 | 0.00 | 0.00 | 42 | 1087.5 |
| 20260505181558 | 87 | 243 | 6.0 | 6.0 | 0.00 | 0.00 | 0.00 | 41 | 1087.6 |
| 20260505181055 | 87 | 276 | 4.0 | 4.0 | 0.00 | 0.00 | 0.00 | 42 | 1087.5 |
| 20260505180550 | 86 | 262 | 6.0 | 7.0 | 0.00 | 0.00 | 0.00 | 43 | 1087.7 |
| 20260505180049 | 85 | 293 | 5.0 | 6.0 | 0.00 | 0.00 | 0.00 | 42 | 1087.6 |
| 20260505175549 | 86 | 273 | 5.0 | 6.0 | 0.00 | 0.00 | 0.00 | 45 | 1087.7 |
| 20260505175046 | 85 | 279 | 4.0 | 7.0 | 0.00 | 0.00 | 0.00 | 45 | 1087.5 |
| 20260505174543 | 85 | 236 | 5.0 | 6.0 | 0.00 | 0.00 | 0.00 | 46 | 1087.8 |
| 20260505174039 | 85 | 305 | 6.0 | 8.0 | 0.00 | 0.00 | 0.00 | 44 | 1087.6 |
| 20260505173536 | 84 | 271 | 7.0 | 8.0 | 0.00 | 0.00 | 0.00 | 47 | 1087.7 |
| 20260505173033 | 84 | 268 | 6.0 | 8.0 | 0.00 | 0.00 | 0.00 | 49 | 1087.9 |
| 20260505172531 | 84 | 206 | 2.0 | 2.0 | 0.00 | 0.00 | 0.00 | 52 | 1087.5 |
| 20260505172027 | 83 | 256 | 2.0 | 3.0 | 0.00 | 0.00 | 0.00 | 52 | 1087.8 |
| 20260505171522 | 82 | 272 | 3.0 | 3.0 | 0.00 | 0.00 | 0.00 | 56 | 1087.8 |
| 20260505171019 | 82 | 239 | 7.0 | 8.0 | 0.00 | 0.00 | 0.00 | 56 | 1087.6 |
| 20260505170516 | 82 | 252 | 6.0 | 7.0 | 0.00 | 0.00 | 0.00 | 59 | 1087.9 |
| 20260505170013 | 82 | 250 | 2.0 | 2.0 | 0.00 | 0.00 | 0.00 | 63 | 1087.9 |
| 20260505165508 | 81 | 205 | 2.0 | 3.0 | 0.00 | 0.00 | 0.00 | 65 | 1088.0 |
| 20260505165004 | 80 | 258 | 5.0 | 6.0 | 0.00 | 0.00 | 0.00 | 66 | 1087.8 |
| 20260505164500 | 79 | 178 | 5.0 | 7.0 | 0.00 | 0.00 | 0.00 | 67 | 1088.1 |
| 20260505163958 | 79 | 218 | 1.0 | 2.0 | 0.00 | 0.00 | 0.00 | 70 | 1088.0 |
| 20260505163456 | 78 | 232 | 1.0 | 1.0 | 0.00 | 0.00 | 0.00 | 71 | 1088.0 |
| 20260505162955 | 78 | 248 | 3.0 | 3.0 | 0.00 | 0.00 | 0.00 | 72 | 1088.0 |
| 20260505162451 | 78 | 258 | 4.0 | 4.0 | 0.00 | 0.00 | 0.00 | 73 | 1087.9 |
| 20260505161947 | 77 | 269 | 6.0 | 7.0 | 0.00 | 0.00 | 0.00 | 74 | 1087.9 |
| 20260505161444 | 77 | 201 | 3.0 | 6.0 | 0.00 | 0.00 | 0.00 | 75 | 1088.0 |
| 20260505160942 | 77 | 213 | 3.0 | 3.0 | 0.00 | 0.00 | 0.00 | 76 | 1088.0 |
| 20260505160440 | 77 | 214 | 3.0 | 4.0 | 0.00 | 0.00 | 0.00 | 77 | 1088.2 |
| 20260505152916 | 75 | 213 | 3.0 | 6.0 | 0.00 | 0.00 | 0.00 | 81 | 1087.7 |
| 20260505152414 | 75 | 211 | 1.0 | 1.0 | 0.00 | 0.00 | 0.00 | 82 | 1087.9 |
| 20260505151913 | 74 | 229 | 3.0 | 4.0 | 0.00 | 0.00 | 0.00 | 82 | 1087.8 |
| 20260505151410 | 73 | 201 | 4.0 | 6.0 | 0.00 | 0.00 | 0.00 | 83 | 1087.7 |
| 20260505150908 | 73 | 228 | 1.0 | 1.0 | 0.00 | 0.00 | 0.00 | 84 | 1087.5 |
| 20260505150405 | 73 | 181 | 4.0 | 6.0 | 0.00 | 0.00 | 0.00 | 84 | 1087.6 |
| 20260505140334 | 69 | 177 | 6.0 | 9.0 | 0.00 | 0.00 | 0.00 | 89 | 1087.6 |
| 20260505130257 | 67 | 186 | 8.0 | 11.0 | 0.00 | 0.00 | 0.00 | 93 | 1087.1 |
| 20260505124748 | 67 | 197 | 4.0 | 6.0 | 0.00 | 0.00 | 0.00 | 93 | 1087.3 |
| 20260505124245 | 67 | 193 | 6.0 | 9.0 | 0.00 | 0.00 | 0.00 | 93 | 1087.4 |
| 20260505123740 | 67 | 200 | 5.0 | 6.0 | 0.00 | 0.00 | 0.00 | 94 | 1086.9 |
| 20260505123237 | 66 | 161 | 3.0 | 4.0 | 0.00 | 0.00 | 0.00 | 94 | 1087.4 |
| 20260505122734 | 66 | 195 | 4.0 | 6.0 | 0.00 | 0.00 | 0.00 | 94 | 1087.0 |
| 20260505122231 | 66 | 185 | 3.0 | 4.0 | 0.00 | 0.00 | 0.00 | 94 | 1086.8 |
| 20260505121728 | 66 | 177 | 3.0 | 4.0 | 0.00 | 0.00 | 0.00 | 94 | 1086.8 |
| 20260505121224 | 66 | 215 | 5.0 | 7.0 | 0.00 | 0.00 | 0.00 | 93 | 1086.5 |
| 20260505120721 | 66 | 165 | 4.0 | 7.0 | 0.00 | 0.00 | 0.00 | 93 | 1086.6 |
| 20260505120217 | 66 | 190 | 4.0 | 6.0 | 0.00 | 0.00 | 0.00 | 93 | 1086.6 |
| 20260505115715 | 66 | 177 | 4.0 | 4.0 | 0.00 | 0.00 | 0.00 | 93 | 1086.4 |
| 20260505115213 | 66 | 176 | 3.0 | 4.0 | 0.00 | 0.00 | 0.00 | 93 | 1086.5 |
| 20260505114711 | 66 | 183 | 5.0 | 7.0 | 0.00 | 0.00 | 0.00 | 92 | 1086.4 |
| 20260505114206 | 66 | 176 | 4.0 | 6.0 | 0.00 | 0.00 | 0.00 | 93 | 1086.6 |
| 20260505113703 | 66 | 214 | 3.0 | 4.0 | 0.00 | 0.00 | 0.00 | 92 | 1086.3 |
| 20260505113200 | 65 | 166 | 2.0 | 3.0 | 0.00 | 0.00 | 0.00 | 92 | 1086.1 |
| 20260505112656 | 65 | 182 | 2.0 | 2.0 | 0.00 | 0.00 | 0.00 | 92 | 1086.4 |
| 20260505112154 | 65 | 177 | 4.0 | 6.0 | 0.00 | 0.00 | 0.00 | 92 | 1086.1 |
| 20260505111653 | 65 | 191 | 4.0 | 4.0 | 0.00 | 0.00 | 0.00 | 92 | 1086.2 |
| 20260505111149 | 65 | 187 | 4.0 | 6.0 | 0.00 | 0.00 | 0.00 | 92 | 1085.9 |
| 20260505110646 | 66 | 145 | 4.0 | 6.0 | 0.00 | 0.00 | 0.00 | 91 | 1086.0 |
| 20260505110143 | 66 | 158 | 3.0 | 3.0 | 0.00 | 0.00 | 0.00 | 91 | 1086.1 |
| 20260505102119 | 66 | 160 | 6.0 | 8.0 | 0.00 | 0.00 | 0.00 | 90 | 1085.7 |
| 20260505101617 | 66 | 160 | 4.0 | 6.0 | 0.00 | 0.00 | 0.00 | 90 | 1085.8 |
| 20260505101113 | 66 | 175 | 5.0 | 7.0 | 0.00 | 0.00 | 0.00 | 89 | 1085.8 |
| 20260505100610 | 66 | 203 | 3.0 | 3.0 | 0.00 | 0.00 | 0.00 | 89 | 1085.7 |
| 20260505100107 | 66 | 143 | 3.0 | 3.0 | 0.00 | 0.00 | 0.00 | 89 | 1085.7 |
| 20260505095603 | 66 | 137 | 6.0 | 8.0 | 0.00 | 0.00 | 0.00 | 89 | 1086.0 |
| 20260505095059 | 66 | 155 | 5.0 | 7.0 | 0.00 | 0.00 | 0.00 | 89 | 1085.8 |
| 20260505094556 | 66 | 177 | 4.0 | 6.0 | 0.00 | 0.00 | 0.00 | 88 | 1085.9 |
| 20260505094052 | 66 | 189 | 5.0 | 7.0 | 0.00 | 0.00 | 0.00 | 88 | 1085.9 |
| 20260505093549 | 67 | 164 | 3.0 | 3.0 | 0.00 | 0.00 | 0.00 | 88 | 1085.9 |
| 20260505093046 | 67 | 167 | 4.0 | 4.0 | 0.00 | 0.00 | 0.00 | 87 | 1085.8 |
| 20260505092544 | 67 | 156 | 6.0 | 9.0 | 0.00 | 0.00 | 0.00 | 87 | 1085.9 |
| 20260505092042 | 67 | 183 | 5.0 | 7.0 | 0.00 | 0.00 | 0.00 | 87 | 1085.7 |
| 20260505091538 | 67 | 148 | 6.0 | 11.0 | 0.00 | 0.00 | 0.00 | 86 | 1085.7 |